Total_Precipitation_Accumulation
0.06 0.14 0.41 0.59 0.61 0.61 0.61 0.60 0.57 0.53 0.50 0.53 0.59 0.66 0.68 0.64 0.60 0.55 0.53 0.54 0.58 0.63 0.69 0.75 0.75 0.75 0.72 0.70 0.64 0.57 0.55 0.56 0.57 0.55 0.60 0.65 0.67 0.62 0.55 0.51 0.39 0.46 0.69
0.06 0.16 0.39 0.52 0.56 0.60 0.61 0.58 0.53 0.51 0.50 0.53 0.58 0.59 0.61 0.62 0.61 0.61 0.58 0.58 0.60 0.65 0.73 0.79 0.76 0.73 0.71 0.67 0.60 0.50 0.46 0.42 0.42 0.41 0.39 0.38 0.56 0.62 0.55 0.57 0.52 0.72 0.84
0.05 0.14 0.31 0.47 0.54 0.58 0.58 0.54 0.51 0.53 0.55 0.58 0.60 0.59 0.57 0.58 0.60 0.66 0.67 0.64 0.62 0.60 0.64 0.71 0.74 0.71 0.65 0.57 0.51 0.45 0.43 0.36 0.31 0.30 0.29 0.23 0.45 0.72 0.70 0.69 0.65 0.84 0.84
0.06 0.14 0.24 0.43 0.53 0.57 0.58 0.57 0.59 0.62 0.63 0.69 0.69 0.65 0.61 0.61 0.62 0.66 0.65 0.64 0.63 0.60 0.59 0.63 0.62 0.62 0.54 0.44 0.42 0.41 0.42 0.38 0.28 0.23 0.14 0.14 0.40 0.75 0.81 0.75 0.71 0.76 0.79
0.08 0.15 0.28 0.46 0.56 0.59 0.63 0.64 0.64 0.66 0.71 0.75 0.76 0.73 0.72 0.72 0.68 0.69 0.68 0.65 0.60 0.58 0.57 0.59 0.56 0.54 0.50 0.46 0.43 0.41 0.39 0.35 0.27 0.18 0.09 0.12 0.32 0.69 0.70 0.68 0.63 0.67 0.72
0.11 0.19 0.33 0.50 0.62 0.66 0.68 0.67 0.69 0.71 0.73 0.77 0.75 0.73 0.74 0.81 0.77 0.69 0.66 0.67 0.61 0.57 0.58 0.57 0.54 0.54 0.49 0.44 0.46 0.48 0.46 0.39 0.25 0.14 0.11 0.12 0.21 0.50 0.64 0.69 0.68 0.66 0.62
0.16 0.24 0.37 0.56 0.68 0.74 0.76 0.78 0.79 0.80 0.80 0.77 0.76 0.73 0.74 0.76 0.78 0.73 0.66 0.64 0.60 0.58 0.60 0.60 0.56 0.55 0.52 0.47 0.48 0.53 0.58 0.44 0.25 0.24 0.19 0.18 0.24 0.44 0.58 0.69 0.71 0.67 0.67
0.22 0.31 0.47 0.70 0.79 0.81 0.85 0.81 0.85 0.90 0.91 0.88 0.81 0.77 0.79 0.78 0.75 0.74 0.67 0.65 0.65 0.62 0.58 0.54 0.52 0.49 0.48 0.47 0.47 0.50 0.55 0.42 0.29 0.31 0.35 0.33 0.35 0.49 0.59 0.64 0.69 0.71 0.74
0.26 0.37 0.54 0.75 0.86 0.96 0.98 0.92 0.91 0.90 0.95 0.93 0.88 0.83 0.80 0.79 0.74 0.72 0.69 0.64 0.64 0.67 0.64 0.54 0.51 0.48 0.43 0.41 0.40 0.42 0.45 0.42 0.41 0.47 0.40 0.45 0.43 0.57 0.67 0.64 0.67 0.74 0.78
0.32 0.44 0.60 0.77 0.89 0.98 1.06 1.02 0.97 0.94 0.95 0.98 0.92 0.88 0.86 0.84 0.82 0.75 0.67 0.68 0.65 0.64 0.68 0.63 0.56 0.55 0.50 0.41 0.35 0.35 0.37 0.37 0.38 0.41 0.47 0.41 0.44 0.68 0.83 0.78 0.71 0.74 0.80
0.47 0.58 0.71 0.82 0.94 1.06 1.12 1.07 1.09 1.07 1.08 1.09 1.04 1.01 0.98 0.97 0.95 0.85 0.70 0.67 0.69 0.67 0.66 0.67 0.62 0.59 0.56 0.43 0.36 0.33 0.32 0.28 0.32 0.41 0.42 0.37 0.49 0.75 0.98 0.93 0.86 0.79 0.80
0.50 0.65 0.78 0.85 0.98 1.16 1.21 1.22 1.27 1.19 1.14 1.17 1.03 0.99 1.03 1.03 1.07 0.96 0.85 0.75 0.73 0.72 0.73 0.72 0.69 0.65 0.58 0.44 0.37 0.36 0.27 0.22 0.23 0.24 0.23 0.27 0.40 0.65 0.98 1.06 1.01 0.96 0.94
0.51 0.66 0.79 0.92 1.06 1.21 1.23 1.23 1.25 1.25 1.17 1.19 1.16 1.01 0.97 1.04 1.04 1.07 1.01 0.98 0.89 0.82 0.80 0.81 0.82 0.72 0.65 0.55 0.47 0.41 0.30 0.26 0.24 0.20 0.18 0.21 0.29 0.48 0.73 0.93 1.12 1.14 1.17
0.59 0.70 0.84 0.99 1.15 1.27 1.28 1.31 1.26 1.19 1.14 1.09 1.19 1.17 1.06 0.99 0.93 0.91 0.91 0.87 0.85 0.80 0.80 0.81 0.80 0.74 0.74 0.69 0.58 0.50 0.44 0.38 0.31 0.26 0.22 0.25 0.26 0.39 0.60 0.79 1.00 1.17 1.28
0.63 0.74 0.85 0.99 1.12 1.29 1.46 1.43 1.39 1.27 1.16 1.13 1.17 1.19 1.11 1.02 0.93 0.88 0.84 0.86 0.83 0.75 0.72 0.72 0.69 0.63 0.59 0.60 0.58 0.53 0.52 0.45 0.38 0.36 0.32 0.33 0.30 0.32 0.49 0.67 0.84 1.08 1.30
0.69 0.79 0.90 1.02 1.11 1.24 1.41 1.46 1.46 1.41 1.35 1.32 1.21 1.16 1.13 1.10 1.01 0.93 0.87 0.85 0.84 0.80 0.76 0.70 0.66 0.60 0.53 0.48 0.44 0.43 0.47 0.47 0.45 0.42 0.37 0.35 0.33 0.31 0.39 0.57 0.75 0.97 1.25
0.73 0.84 0.97 1.09 1.22 1.24 1.29 1.48 1.51 1.52 1.47 1.45 1.31 1.26 1.25 1.17 1.13 1.07 0.99 0.91 0.84 0.79 0.78 0.78 0.73 0.65 0.58 0.51 0.45 0.42 0.40 0.39 0.40 0.42 0.40 0.38 0.38 0.35 0.35 0.46 0.64 0.83 1.09
0.79 0.89 1.07 1.17 1.25 1.25 1.24 1.40 1.50 1.53 1.57 1.57 1.54 1.43 1.38 1.31 1.23 1.20 1.14 1.09 1.03 0.93 0.84 0.80 0.75 0.69 0.62 0.57 0.51 0.46 0.44 0.40 0.36 0.36 0.36 0.37 0.39 0.39 0.38 0.43 0.54 0.75 0.97
0.75 0.90 1.10 1.21 1.25 1.28 1.30 1.35 1.53 1.56 1.55 1.62 1.70 1.64 1.54 1.50 1.37 1.28 1.22 1.21 1.25 1.20 1.04 0.89 0.81 0.71 0.65 0.58 0.55 0.53 0.49 0.45 0.42 0.41 0.35 0.31 0.32 0.35 0.40 0.42 0.49 0.62 0.78
0.76 0.92 1.12 1.29 1.36 1.37 1.43 1.42 1.54 1.69 1.56 1.51 1.58 1.63 1.63 1.62 1.53 1.44 1.32 1.23 1.27 1.33 1.29 1.12 0.93 0.82 0.73 0.65 0.62 0.61 0.57 0.53 0.47 0.43 0.40 0.36 0.33 0.33 0.39 0.43 0.45 0.51 0.62
0.85 0.92 1.08 1.25 1.37 1.41 1.45 1.43 1.37 1.50 1.56 1.43 1.34 1.49 1.67 1.74 1.76 1.69 1.52 1.42 1.35 1.30 1.26 1.23 1.14 1.03 0.91 0.80 0.78 0.76 0.68 0.60 0.57 0.49 0.41 0.37 0.35 0.32 0.34 0.42 0.46 0.47 0.55
0.87 0.90 1.01 1.20 1.31 1.30 1.30 1.36 1.36 1.39 1.47 1.50 1.38 1.40 1.54 1.73 1.86 1.98 1.86 1.66 1.52 1.42 1.37 1.31 1.24 1.21 1.13 0.98 0.88 0.90 0.88 0.82 0.67 0.55 0.47 0.39 0.36 0.35 0.35 0.37 0.44 0.49 0.52
0.88 0.90 0.88 1.04 1.29 1.33 1.32 1.46 1.51 1.60 1.64 1.65 1.53 1.40 1.44 1.53 1.62 1.70 1.82 1.69 1.64 1.56 1.49 1.40 1.30 1.26 1.25 1.14 0.97 1.04 1.12 0.97 0.72 0.60 0.54 0.48 0.41 0.38 0.36 0.36 0.39 0.46 0.50
0.85 0.99 0.94 0.96 1.16 1.39 1.38 1.40 1.42 1.48 1.52 1.52 1.47 1.37 1.38 1.49 1.55 1.55 1.64 1.70 1.56 1.47 1.40 1.37 1.33 1.23 1.25 1.25 1.13 0.99 0.93 0.91 0.93 0.78 0.58 0.55 0.56 0.50 0.43 0.38 0.36 0.41 0.49
0.86 1.02 1.08 1.07 1.10 1.31 1.37 1.31 1.31 1.32 1.39 1.49 1.51 1.46 1.41 1.49 1.59 1.61 1.59 1.65 1.68 1.53 1.35 1.28 1.32 1.32 1.27 1.22 1.15 1.04 0.91 0.78 0.76 0.87 0.72 0.62 0.66 0.65 0.61 0.54 0.48 0.48 0.51
0.91 1.06 1.14 1.19 1.13 1.20 1.42 1.37 1.26 1.23 1.24 1.36 1.48 1.58 1.57 1.53 1.57 1.63 1.62 1.58 1.59 1.62 1.55 1.36 1.28 1.31 1.30 1.25 1.19 1.11 1.04 0.99 0.84 0.82 0.77 0.61 0.60 0.60 0.65 0.70 0.69 0.66 0.66